Zurück zum Katalog

STARLINK-31585

AktivKommunikationVLEO
NORAD 59608·PAYLOAD·🇺🇸 United States

Gestartet Apr 28, 2024 von Cape Canaveral Space Force Station

Loading…

Nächste Überflüge (nächste 24 Stunden)

TLE

AktuellSource: CelesTrak SupGP

Epoche: Sep 14, 2026, 22:21 UTC

1 59608C 24080H   26257.93173611  .00048117  00000+0  17434-2 0  2573
2 59608  43.0023  45.2183 0001686 278.1432 325.7657 15.27543495    14

Verfolge STARLINK-31585 in Echtzeit mit AllMySat

Download on the App Store